Zurück zum Katalog

SL-8 DEB *

AktivLEO
NORAD 3045·DEBRIS·🇷🇺 Russia

Gestartet Sep 3, 1965 von Baikonur Cosmodrome

Loading…

Nächste Überflüge (nächste 24 Stunden)

TLE

AktuellSource: Space-Track

Epoche: Sep 14, 2026, 07:47 UTC

1 03045U 65070G   26257.32462231  .00000563  00000-0  39835-2 0  9999
2 03045  55.4327 358.3662 0290916 291.4329 101.4517 12.44648405700037

Verfolge SL-8 DEB * in Echtzeit mit AllMySat

Download on the App Store